| time (UTC) | temp C | wind direction | speed KPH | gust KPH | rain 1hr cm | rain 24hr cm | rain mn cm | humidity % | barometer mb |
| 20260506061528 | 24 | 263 | 3.2 | 8.0 | 0.00 | 0.00 | 0.00 | 87 | 1008.6 |
| 20260506044538 | 25 | 199 | 3.2 | 9.7 | 0.00 | 0.00 | 0.00 | 86 | 1008.6 |
| 20260506043030 | 25 | 57 | 0.0 | 6.4 | 0.00 | 0.00 | 0.00 | 86 | 1008.6 |
| 20260506041541 | 25 | 302 | 1.6 | 8.0 | 0.00 | 0.00 | 0.00 | 85 | 1008.3 |
| 20260506040033 | 25 | 271 | 0.0 | 3.2 | 0.00 | 0.00 | 0.00 | 85 | 1008.1 |
| 20260506034531 | 25 | 231 | 0.0 | 6.4 | 0.00 | 0.00 | 0.00 | 84 | 1007.9 |
| 20260506033026 | 25 | 0 | 0.0 | 8.0 | 0.00 | 0.00 | 0.00 | 84 | 1007.9 |
| 20260506031530 | 25 | 0 | 0.0 | 4.8 | 0.00 | 0.00 | 0.00 | 83 | 1007.6 |
| 20260506030030 | 25 | 330 | 0.0 | 8.0 | 0.00 | 0.00 | 0.00 | 82 | 1007.5 |
| 20260506024528 | 26 | 30 | 0.0 | 3.2 | 0.00 | 0.00 | 0.00 | 81 | 1007.4 |
| 20260506023030 | 26 | 333 | 1.6 | 8.0 | 0.00 | 0.00 | 0.00 | 80 | 1007.0 |
| 20260506021528 | 26 | 0 | 0.0 | 3.2 | 0.00 | 0.00 | 0.00 | 78 | 1006.6 |
| 20260506020026 | 26 | 108 | 0.0 | 6.4 | 0.00 | 0.00 | 0.00 | 77 | 1006.3 |
| 20260506014528 | 27 | 18 | 0.0 | 4.8 | 0.00 | 0.00 | 0.00 | 76 | 1006.1 |
| 20260506013032 | 27 | 79 | 1.6 | 4.8 | 0.00 | 0.00 | 0.00 | 75 | 1006.2 |
| 20260506011539 | 27 | 241 | 0.0 | 6.4 | 0.00 | 0.00 | 0.00 | 75 | 1006.3 |
| 20260506010029 | 27 | 0 | 0.0 | 4.8 | 0.00 | 0.00 | 0.00 | 74 | 1006.3 |
| 20260506004539 | 27 | 0 | 0.0 | 3.2 | 0.00 | 0.00 | 0.00 | 73 | 1006.4 |
| 20260506003031 | 28 | 266 | 0.0 | 6.4 | 0.00 | 0.00 | 0.00 | 72 | 1006.2 |
| 20260506001527 | 28 | 222 | 0.0 | 8.0 | 0.00 | 0.00 | 0.00 | 72 | 1006.1 |
| 20260506000027 | 28 | 254 | 1.6 | 6.4 | 0.00 | 0.00 | 0.00 | 71 | 1006.1 |
| 20260505234530 | 28 | 209 | 0.0 | 8.0 | 0.00 | 0.00 | 0.00 | 71 | 1006.0 |
| 20260505233032 | 28 | 247 | 1.6 | 6.4 | 0.00 | 0.00 | 0.00 | 70 | 1005.9 |
| 20260505231536 | 28 | 269 | 3.2 | 8.0 | 0.00 | 0.00 | 0.00 | 70 | 1005.8 |
| 20260505230028 | 28 | 230 | 0.0 | 8.0 | 0.00 | 0.00 | 0.00 | 69 | 1005.6 |
| 20260505224528 | 28 | 251 | 1.6 | 8.0 | 0.00 | 0.00 | 0.00 | 68 | 1005.6 |
| 20260505223033 | 29 | 153 | 3.2 | 9.7 | 0.00 | 0.00 | 0.00 | 68 | 1005.6 |
| 20260505221600 | 29 | 224 | 3.2 | 9.7 | 0.00 | 0.00 | 0.00 | 67 | 1005.6 |
| 20260505220046 | 30 | 184 | 3.2 | 8.0 | 0.00 | 0.00 | 0.00 | 66 | 1005.8 |
| 20260505214532 | 29 | 264 | 3.2 | 14.5 | 0.00 | 0.00 | 0.00 | 66 | 1006.0 |
| 20260505213028 | 30 | 233 | 4.8 | 11.3 | 0.00 | 0.00 | 0.00 | 65 | 1006.3 |
| 20260505211537 | 29 | 277 | 4.8 | 12.9 | 0.00 | 0.00 | 0.00 | 68 | 1006.1 |
| 20260505210028 | 28 | 121 | 3.2 | 14.5 | 0.00 | 0.00 | 0.00 | 69 | 1006.4 |
| 20260505204529 | 28 | 269 | 4.8 | 17.7 | 0.00 | 0.00 | 0.00 | 68 | 1006.6 |
| 20260505203028 | 28 | 282 | 3.2 | 9.7 | 0.00 | 0.00 | 0.00 | 70 | 1007.0 |
| 20260505201527 | 28 | 276 | 3.2 | 9.7 | 0.00 | 0.00 | 0.00 | 71 | 1007.4 |
| 20260505200030 | 27 | 221 | 1.6 | 11.3 | 0.00 | 0.00 | 0.00 | 71 | 1007.4 |
| 20260505194528 | 27 | 293 | 3.2 | 11.3 | 0.00 | 0.00 | 0.00 | 72 | 1007.6 |
| 20260505193035 | 27 | 232 | 4.8 | 9.7 | 0.00 | 0.00 | 0.00 | 72 | 1007.8 |
| 20260505191526 | 27 | 262 | 3.2 | 11.3 | 0.00 | 0.00 | 0.00 | 73 | 1007.8 |
| 20260505190030 | 27 | 170 | 4.8 | 9.7 | 0.00 | 0.00 | 0.00 | 75 | 1007.9 |
| 20260505184530 | 26 | 177 | 1.6 | 8.0 | 0.00 | 0.00 | 0.00 | 77 | 1008.1 |
| 20260505183036 | 26 | 217 | 3.2 | 14.5 | 0.00 | 0.00 | 0.00 | 78 | 1008.5 |
| 20260505181530 | 25 | 196 | 1.6 | 14.5 | 0.00 | 0.00 | 0.00 | 78 | 1008.6 |
| 20260505180027 | 25 | 283 | 4.8 | 11.3 | 0.00 | 0.00 | 0.00 | 80 | 1008.7 |
| 20260505174526 | 25 | 233 | 1.6 | 9.7 | 0.00 | 0.00 | 0.00 | 80 | 1008.9 |
| 20260505173028 | 24 | 0 | 1.6 | 14.5 | 0.00 | 0.00 | 0.00 | 82 | 1008.9 |
| 20260505171528 | 23 | 269 | 1.6 | 6.4 | 0.00 | 0.00 | 0.00 | 82 | 1009.0 |
| 20260505170030 | 23 | 270 | 3.2 | 6.4 | 0.00 | 0.00 | 0.00 | 83 | 1009.1 |
| 20260505164545 | 23 | 274 | 0.0 | 4.8 | 0.00 | 0.00 | 0.00 | 84 | 1009.0 |
| 20260505163028 | 23 | 255 | 3.2 | 11.3 | 0.00 | 0.00 | 0.00 | 85 | 1008.9 |
| 20260505161535 | 22 | 266 | 0.0 | 6.4 | 0.00 | 0.00 | 0.00 | 86 | 1009.1 |
| 20260505153029 | 22 | 263 | 1.6 | 6.4 | 0.00 | 0.00 | 0.00 | 87 | 1009.3 |
| 20260505151527 | 22 | 251 | 1.6 | 12.9 | 0.00 | 0.00 | 0.00 | 87 | 1009.1 |
| 20260505124536 | 21 | 271 | 3.2 | 14.5 | 0.00 | 0.00 | 0.00 | 89 | 1007.9 |
| 20260505123028 | 21 | 269 | 4.8 | 17.7 | 0.00 | 0.00 | 0.00 | 89 | 1007.8 |
| 20260505121533 | 21 | 165 | 4.8 | 12.9 | 0.00 | 0.00 | 0.00 | 89 | 1007.6 |
| 20260505120034 | 21 | 261 | 3.2 | 9.7 | 0.00 | 0.00 | 0.00 | 88 | 1007.4 |
| 20260505114530 | 21 | 237 | 3.2 | 9.7 | 0.00 | 0.00 | 0.00 | 88 | 1007.5 |
| 20260505113027 | 21 | 180 | 4.8 | 19.3 | 0.00 | 0.00 | 0.00 | 87 | 1007.5 |
| 20260505111529 | 21 | 264 | 1.6 | 11.3 | 0.00 | 0.00 | 0.00 | 87 | 1007.5 |
| 20260505101525 | 21 | 207 | 1.6 | 11.3 | 0.00 | 0.00 | 0.00 | 87 | 1007.8 |
| 20260505100029 | 21 | 239 | 1.6 | 12.9 | 0.00 | 0.00 | 0.00 | 87 | 1007.8 |
| 20260505094530 | 21 | 245 | 3.2 | 14.5 | 0.00 | 0.00 | 0.00 | 86 | 1007.6 |
| 20260505093027 | 21 | 200 | 1.6 | 14.5 | 0.00 | 0.00 | 0.00 | 86 | 1007.8 |
| 20260505091525 | 21 | 266 | 4.8 | 14.5 | 0.00 | 0.00 | 0.00 | 85 | 1007.7 |
| 20260505090027 | 21 | 272 | 1.6 | 16.1 | 0.00 | 0.00 | 0.00 | 85 | 1007.8 |
| 20260505084542 | 21 | 257 | 3.2 | 17.7 | 0.00 | 0.00 | 0.00 | 85 | 1007.8 |
| 20260505083026 | 21 | 257 | 4.8 | 11.3 | 0.00 | 0.00 | 0.00 | 85 | 1007.9 |
| 20260505081527 | 21 | 262 | 1.6 | 12.9 | 0.00 | 0.00 | 0.00 | 86 | 1008.3 |
| 20260505080028 | 21 | 255 | 3.2 | 12.9 | 0.00 | 0.00 | 0.00 | 85 | 1008.4 |
| 20260505074531 | 21 | 257 | 1.6 | 9.7 | 0.00 | 0.00 | 0.00 | 85 | 1008.6 |
| 20260505073033 | 21 | 257 | 6.4 | 14.5 | 0.00 | 0.00 | 0.00 | 84 | 1008.7 |
| 20260505071529 | 21 | 233 | 3.2 | 19.3 | 0.00 | 0.00 | 0.00 | 84 | 1009.0 |